Preview of NWS' New Version of Forecast
This preview is not operational and should not be used for support decisions.

Regional Weather Roundup (RWR)

Issued by National Weather Service (NWS)

                            
000
ASUS43 KTOP 180359
RWRKS 

WEATHER ROUNDUP FOR KANSAS
NATIONAL WEATHER SERVICE GOODLAND KS
1000 PM CST SUN FEB 17 2019

NOTE:  "FAIR" INDICATES FEW OR NO CLOUDS BELOW 12,000 FEET WITH NO
SIGNIFICANT WEATHER AND/OR OBSTRUCTIONS TO VISIBILITY.

KSZ001>006-013>018-027>032-041>047-180500-
NORTHWEST KANSAS
  
CITY           SKY/WX    TMP DP  RH WIND       PRES   REMARKS
GOODLAND       FAIR       9   2  73 N13       30.12R WCI  -7          
HAYS           CLEAR     15  10  80 N17       30.22R WCI  -1          
HILL CITY      CLEAR     14   6  70 N12       30.24R WCI   0          
RUSSELL        CLEAR     14   9  80 N14       30.22R WCI  -1          
$$

KSZ061>065-074>080-084>089-180500-
SOUTHWEST KANSAS
  
CITY           SKY/WX    TMP DP  RH WIND       PRES   REMARKS
DODGE CITY     CLEAR     17  10  74 NE13      30.15R WCI   4          
GARDEN CITY    CLEAR     17  10  74 NE12      30.14R WCI   4          
GREAT BEND     CLEAR     17  11  77 N15       30.22R WCI   2          
LIBERAL        PTCLDY    24  15  68 NE16      30.13R WCI  11          
$$

KSZ066>073-081>083-090>101-180500-
SOUTHEAST KANSAS
  
CITY           SKY/WX    TMP DP  RH WIND       PRES   REMARKS
CHANUTE        CLEAR     24  15  68 NW8       30.21R                  
COFFEYVILLE    CLEAR     26  17  68 NW12      30.22R WCI  16          
HUTCHINSON     CLEAR     20  12  71 N10G23    30.22R WCI   9          
MEDICINE LODGE   N/A     22  14  71 N10       30.21R WCI  11          
NEWTON         CLEAR     18  12  77 N14       30.21R WCI   4          
PARSONS        CLEAR     23  17  78 N8        30.23R                  
WICHITA INTL   CLEAR     23  13  65 N15       30.21R WCI  10          
WICHITA JABRA  CLEAR     20  12  71 N16G24    30.21R WCI   6          
WICHITA MCCONL CLEAR     22  12  65 N16       30.21R WCI   8          
WINFIELD       CLEAR     22  14  71 N10       30.23R WCI  11          
$$

KSZ007>012-019>026-033>040-048>060-102>105-180500-
NORTHEAST KANSAS
  
CITY           SKY/WX    TMP DP  RH WIND       PRES   REMARKS
CONCORDIA      CLEAR     15   7  70 NW12      30.23R WCI   2          
EMPORIA        CLEAR     19  14  81 NW10      30.19R WCI   7          
LAWRENCE       CLEAR     20  12  71 NW13      30.18R WCI   7          
MANHATTAN      CLEAR     18  12  77 VRB3      30.23R                  
OLATHE IND     MOCLDY    20  13  74 NW12      30.16R WCI   8          
OLATHE EXE     CLOUDY    20  11  68 NW9       30.15R                  
SALINA         CLEAR     18  10  71 NW15      30.24R WCI   4          
TOPEKA BILLARD CLEAR     20  11  68 NW13      30.20R WCI   7          
TOPEKA FORBES  CLEAR     19  11  70 NW15      30.18R WCI   5          
$$